Location: Unspecified
(41.1637°N, 24.2901°E)
Time: 19:43:13
(UTC+02:00)

ISS - Pass Details

Date: 20 May 2024
Orbit: 410 x 414 km, 51.6° (Epoch: 18 May)

Event Time Altitude Azimuth Distance (km) Brightness Sun altitude
Rises 23:25:32 0° 306° (NW) 2,347 0.8 -27.3°
Reaches altitude 10° 23:27:38 10° 307° (NW) 1,481 -0.4 -27.4°
Enters shadow 23:28:21 16° 308° (NW) 1,190 -0.9 -27.5°
